TimeCET,TemperatureF,Dew PointF,Humidity,Sea Level PressureIn,VisibilityMPH,Wind Direction,Wind SpeedMPH,Gust SpeedMPH,PrecipitationIn,Events,Conditions,WindDirDegrees,DateUTC
12:25 AM,39.2,35.6,87,29.83,6.2,NW,4.6,-,N/A,,Partly Cloudy,310,2012-11-05 23:25:00
12:55 AM,41.0,37.4,87,29.86,6.2,NW,5.8,-,N/A,Rain,Light Rain Showers,310,2012-11-05 23:55:00
1:00 AM,39,36,84,29.86,25,NW,6.7,,,Rain,Rain,310,2012-11-06 00:00:00
1:25 AM,37.4,35.6,93,29.86,6.2,WNW,6.9,-,N/A,,Scattered Clouds,290,2012-11-06 00:25:00
1:55 AM,39.2,37.4,93,29.86,6.2,NW,3.5,-,N/A,,Scattered Clouds,310,2012-11-06 00:55:00
2:25 AM,39.2,37.4,93,29.86,6.2,NW,3.5,-,N/A,,Partly Cloudy,310,2012-11-06 01:25:00
2:55 AM,37.4,35.6,93,29.89,6.2,NW,6.9,-,N/A,Rain,Light Rain Showers,310,2012-11-06 01:55:00
3:25 AM,39.2,35.6,87,29.89,6.2,NW,5.8,-,N/A,,Partly Cloudy,310,2012-11-06 02:25:00
3:55 AM,39.2,37.4,93,29.89,6.2,WNW,3.5,-,N/A,,Partly Cloudy,300,2012-11-06 02:55:00
4:00 AM,39,37,89,29.92,25,WNW,4.5,,,Rain,Drizzle,300,2012-11-06 03:00:00
4:25 AM,37.4,37.4,100,29.92,6.2,WNW,2.3,-,N/A,,Partly Cloudy,290,2012-11-06 03:25:00
4:55 AM,37.4,35.6,93,29.92,6.2,WNW,4.6,-,N/A,,Partly Cloudy,300,2012-11-06 03:55:00
5:25 AM,37.4,35.6,93,29.92,6.2,Variable,2.3,-,N/A,,Partly Cloudy,0,2012-11-06 04:25:00
5:55 AM,37.4,35.6,93,29.95,6.2,WNW,3.5,-,N/A,,Partly Cloudy,300,2012-11-06 04:55:00
6:25 AM,37.4,35.6,93,29.95,6.2,West,4.6,-,N/A,,Partly Cloudy,270,2012-11-06 05:25:00
6:55 AM,37.4,35.6,93,29.95,6.2,Variable,2.3,-,N/A,,Partly Cloudy,0,2012-11-06 05:55:00
7:00 AM,38,36,88,29.97,25,West,4.5,,,,Partly Cloudy,280,2012-11-06 06:00:00
7:25 AM,39.2,35.6,87,29.98,6.2,West,8.1,-,N/A,Rain,Light Rain Showers,280,2012-11-06 06:25:00
7:55 AM,41.0,35.6,81,29.98,6.2,WNW,6.9,-,N/A,,Partly Cloudy,290,2012-11-06 06:55:00
8:25 AM,39.2,35.6,87,29.98,6.2,West,6.9,-,N/A,,Partly Cloudy,280,2012-11-06 07:25:00
8:55 AM,42.8,39.2,87,29.98,6.2,West,9.2,-,N/A,,Partly Cloudy,270,2012-11-06 07:55:00
9:25 AM,44.6,41.0,87,30.01,6.2,West,8.1,-,N/A,,Partly Cloudy,270,2012-11-06 08:25:00
9:55 AM,48.2,41.0,76,30.01,6.2,West,5.8,-,N/A,,Partly Cloudy,280,2012-11-06 08:55:00
10:00 AM,48,41,69,30.02,28,West,4.5,,,,Scattered Clouds,280,2012-11-06 09:00:00
10:25 AM,50.0,41.0,71,30.01,6.2,West,9.2,-,N/A,,Partly Cloudy,270,2012-11-06 09:25:00
10:55 AM,50.0,42.8,76,30.01,6.2,West,9.2,-,N/A,,Partly Cloudy,270,2012-11-06 09:55:00
11:25 AM,48.2,41.0,76,30.01,6.2,West,16.1,-,N/A,,Partly Cloudy,280,2012-11-06 10:25:00
11:55 AM,50.0,39.2,66,30.04,6.2,West,17.3,-,N/A,,Partly Cloudy,270,2012-11-06 10:55:00
12:25 PM,50.0,39.2,66,30.04,6.2,West,19.6,-,N/A,,Partly Cloudy,270,2012-11-06 11:25:00
12:55 PM,51.8,39.2,62,30.04,6.2,West,20.7,-,N/A,,Partly Cloudy,260,2012-11-06 11:55:00
1:00 PM,51,39,53,30.04,22,West,20.1,,,,Partly Cloudy,260,2012-11-06 12:00:00
1:25 PM,50.0,39.2,66,30.01,6.2,West,20.7,-,N/A,,Partly Cloudy,260,2012-11-06 12:25:00
1:55 PM,50.0,39.2,66,30.01,6.2,WSW,20.7,-,N/A,,Partly Cloudy,250,2012-11-06 12:55:00
2:25 PM,50.0,39.2,66,30.01,6.2,WSW,18.4,-,N/A,,Partly Cloudy,250,2012-11-06 13:25:00
2:55 PM,48.2,39.2,71,30.01,6.2,WSW,21.9,-,N/A,,Partly Cloudy,250,2012-11-06 13:55:00
3:25 PM,48.2,41.0,76,30.01,6.2,WSW,20.7,-,N/A,,Partly Cloudy,250,2012-11-06 14:25:00
3:55 PM,48.2,39.2,71,30.01,6.2,West,19.6,-,N/A,,Partly Cloudy,260,2012-11-06 14:55:00
4:00 PM,48,39,63,30.01,19,West,15.7,,,,Scattered Clouds,260,2012-11-06 15:00:00
4:25 PM,48.2,42.8,82,29.98,6.2,West,17.3,-,N/A,,Scattered Clouds,260,2012-11-06 15:25:00
4:55 PM,48.2,42.8,82,29.98,6.2,WSW,18.4,-,N/A,Rain,Light Rain,250,2012-11-06 15:55:00
5:25 PM,48.2,44.6,87,29.98,6.2,WSW,18.4,-,N/A,Rain,Light Rain,250,2012-11-06 16:25:00
5:55 PM,48.2,44.6,87,29.98,6.2,WSW,17.3,-,N/A,Rain,Light Rain,250,2012-11-06 16:55:00
6:25 PM,48.2,44.6,87,29.98,6.2,WSW,19.6,-,N/A,Rain,Light Rain,240,2012-11-06 17:25:00
6:55 PM,48.2,44.6,87,29.98,6.2,WSW,20.7,-,N/A,Rain,Light Rain,250,2012-11-06 17:55:00
7:00 PM,48,46,89,30.00,7,WSW,20.1,,,Rain,Rain,250,2012-11-06 18:00:00
7:25 PM,48.2,46.4,93,29.98,5.6,WSW,19.6,-,N/A,Rain,Light Rain,250,2012-11-06 18:25:00
7:55 PM,48.2,46.4,93,29.98,5.0,WSW,19.6,-,N/A,Rain,Light Rain,250,2012-11-06 18:55:00
8:25 PM,48.2,46.4,93,29.98,5.0,West,20.7,-,N/A,Rain,Light Rain,260,2012-11-06 19:25:00
8:55 PM,50.0,48.2,94,29.98,5.0,West,18.4,-,N/A,Rain,Light Rain,260,2012-11-06 19:55:00
9:25 PM,50.0,48.2,94,29.98,6.2,West,20.7,-,N/A,Rain,Light Rain,270,2012-11-06 20:25:00
9:55 PM,50.0,48.2,94,29.98,6.2,West,17.3,-,N/A,Rain,Light Rain,270,2012-11-06 20:55:00
10:00 PM,50,48,92,30.00,7,West,17.9,,,Rain,Heavy Rain,270,2012-11-06 21:00:00
10:25 PM,50.0,48.2,94,29.98,3.7,West,17.3,-,N/A,Rain,Light Rain,270,2012-11-06 21:25:00
10:55 PM,50.0,50.0,100,29.98,6.2,West,16.1,-,N/A,Rain,Light Rain,280,2012-11-06 21:55:00
11:25 PM,50.0,50.0,100,29.98,3.7,West,16.1,-,N/A,,Light Drizzle,280,2012-11-06 22:25:00
11:55 PM,51.8,50.0,94,30.01,3.7,West,16.1,-,N/A,Rain,Light Drizzle,280,2012-11-06 22:55:00